Moose Lake, MN

2:28 PM CDT on August 03, 2015 (GMT -0500)
Coffee Lake | | Change Station
CLOSE
Current Station
Personal Weather Station
Location: Moose Lake Twp., MN
Elevation: 1060 ft
Nearby Weather Stations

Elev 1060 ft 46.43 °N, 92.78 °W | Updated 3 seconds ago

Overcast
Overcast
70.7 °F
Feels Like 76 °F
N
8.7
Wind Variable Wind from NW
Gusts 9.8 mph

Today
High -- | Low -- °F
--% Chance of Precip.
Yesterday
High -- | Low -- °F
Precip. -- in
5:54 AM 8:39 PM
Waning Gibbous, 84% visible
Pressure 29.87 in
Visibility 10.0 miles
Clouds Scattered Clouds 4700 ft
Overcast 6000 ft
Heat Index 76 °F
Dew Point 56 °F
Humidity 60%
Rainfall 0.00 in
Snow Depth Not available.
UV 3 out of 12
Pollen 5.60 out of 12
Air Quality Not available.
Flu Activity Not available.
METAR KMZH 031914Z AUTO 31006G14KT 272V332 10SM SCT047 OVC060 21/11 A2987 RMK AO2

More Conditions Fewer Conditions

Pressure 29.87 in
Visibility 10.0 miles
Clouds Scattered Clouds 4700 ft
Overcast 6000 ft
Heat Index 76 °F
Dew Point 56 °F
Humidity 60%
Rainfall 0.00 in
Snow Depth Not available.
UV 3 out of 12
Pollen 5.60 out of 12
Air Quality Not available.
Flu Activity Not available.
METAR KMZH 031914Z AUTO 31006G14KT 272V332 10SM SCT047 OVC060 21/11 A2987 RMK AO2

More Conditions Fewer Conditions

10-Day Weather Forecast

×

Almanac

Astronomy

Aug. 03, 2015 Rise Set
Actual Time
Civil Twilight
Nautical Twilight
Astronomical Twilight
Moon
Length of Visible Light
Length of Day
Tomorrow will be .
, % of the Moon is Illuminated

Today's Extremes

State Highs State Lows

Community

WunderPhotos

Upload Photos

1,843,710 photos uploaded!

WunderBlogs® & News

Nearby

Air Quality

  Air Quality AQ Index Pollutant
Not available.

Snow Depth

Station Depth Elevation

Earthquake Activity

City Distance Mag. Time & Date
Minimum magnitude displayed is 2.5.

Coastal Water Temperatures

Place Temperature

Stations

Nearby Weather Stations

Station Location Temp. Windchill Dew Point Humidity Wind Precip. Elev Updated Type